Overview Statistics Trail Chart Weather Telemetry Raw packets
 

This is the latest recevied weather packets stored in our database for station/object KG5MMT-15. If no packets are shown the sender has not sent any weather packets the latest 10 day(s).

<< 111 112 113 114 115 116 >>
Time Temp. Humidity Pressure Rain* Wind** Luminosity Snow
1787860381 17.22° C 81% 0 hPa 1.02 mm - - -
1787860081 16.67° C 84% 0 hPa 1.02 mm - - -
1787859782 16.67° C 86% 0 hPa 1.02 mm - - -
1787859481 16.11° C 85% 0 hPa 1.02 mm - - -
1787859181 16.11° C 84% 0 hPa 1.02 mm - - -
1787858881 16.11° C 85% 0 hPa 1.02 mm - - -
1787858582 16.67° C 87% 0 hPa 1.02 mm - - -
1787858282 17.22° C 77% 0 hPa 1.02 mm - - -
1787857982 18.33° C 76% 0 hPa 1.02 mm - - -
1787857682 19.44° C 60% 0 hPa 0.51 mm - - -
1787857382 21.11° C 44% 0 hPa 0 mm - - -
1787857082 22.78° C 41% 0 hPa 0 mm - - -
1787856782 25° C 43% 0 hPa 0 mm - - -
1787856482 25.56° C 37% 0 hPa 0 mm - - -
1787856182 26.11° C 36% 0 hPa 0 mm - - -
1787855882 26.11° C 36% 0 hPa 0 mm - - -
1787855582 26.11° C 36% 0 hPa 0 mm - - -
1787855282 25.56° C 37% 0 hPa 0 mm - - -
1787854982 25.56° C 38% 0 hPa 0 mm - - -
1787854682 25.56° C 37% 0 hPa 0 mm - - -
1787854382 26.11° C 36% 0 hPa 0 mm - - -
1787854082 26.11° C 38% 0 hPa 0 mm - - -
1787853782 25.56° C 39% 0 hPa 0 mm - - -
1787853482 25° C 39% 0 hPa 0 mm - - -
1787853182 25° C 39% 0 hPa 0 mm - - -

* Rain latest hour (hover to see other rain measurements)
** Current wind speed in m/s (hover to see current wind gust speed)